WS Maaseik 1 Meer informatie WS Maaseik 1


WS Maaseik 2 Meer informatie WS Maaseik 2


Regen radar Meer informatie rain snow radar


Bezoek onze andere website:

Vorige versie
weerstation Maaseik


Bezoek ook eens deze sites:

Weerstation Geleen



We konden geen weer-waarchuwingen ophalen. Ga rechtstreeks naar de Meteoalarm site : www.meteoalarm.eu en controleer daar .

15 daagse weersverwachting Skive (DK)

  • Overzicht
  • Per uur
  • 15 dagen
  • Extra
  • Vergelijk
  • Kaarten
  • Dagkaart
  • Meer »
  • Info
  • Statistieken
  • Directe link
    Temp 6h Neerslag Wind  
 04:42     22:16    Daglengte: 17:34 Vandaag
08:00
17°
 
4
14:00
21°
0.7 mm
4
20:00
18°
 
4
 04:43     22:15    Daglengte: 17:32 Morgen
02:00
14°
 
2
08:00
15°
 
4
14:00
17°
2.3 mm
6
20:00
15°
 
5
 04:44     22:14    Daglengte: 17:30 Dinsdag 05 Jul
02:00
13°
 
4
08:00
14°
6.4 mm
6
14:00
17°
25.5 mm
8
20:00
14°
9.4 mm
7
 04:46     22:13    Daglengte: 17:27 Woensdag 06 Jul
02:00
12°
 
5
Locatie info
Region: Midtjylland
Latitude: 56.5680°N
Longitude: 9.0335°E
1 masl
Postcode: 7800
Temp/Neerslag /Baro Onweer/Dauwpunt
    Temp Baro 1h Neerslag Dauwpunt Wind UV Bewolking  
 04:42     22:16    Daglengte: 17:34 Vandaag
08:00
17°
1015.9 hPa   12.6°
4
Windvlaag: 2.1 m/s
14%
09:00
18°
1015.8 hPa   13.1°
3
Windvlaag: 0.2 m/s
15%
10:00
19°
1015.8 hPa
19%
11.7°
3
Windvlaag: 3.3 m/s
9%
11:00
20°
1015.8 hPa
64%
12.1°
4
Windvlaag: 4.4 m/s
18%
12:00
20°
1015.8 hPa 0.3 mm
80%
11.2°
4
Windvlaag: 4.3 m/s
19%
13:00
21°
1015.6 hPa
82%
11.3°
3
Windvlaag: 2.5 m/s
23%
14:00
21°
1015.5 hPa 0.4 mm
82%
10.9°
4
Windvlaag: 2.1 m/s
19%
15:00
21°
1015.2 hPa
82%
11.0°
4
Windvlaag: 2.8 m/s
28%
16:00
21°
1015.1 hPa
75%
13.4°
4
Windvlaag: 4 m/s
28%
17:00
20°
1015.0 hPa
77%
13.4°
4
Windvlaag: -0.9 m/s
9%
18:00
19°
1015.0 hPa
82%
14.0°
4
Windvlaag: -1.4 m/s
11%
19:00
19°
1015.0 hPa
82%
13.3°
4
Windvlaag: -1.5 m/s
16%
20:00
18°
1014.9 hPa
82%
12.7°
4
Windvlaag: -0.8 m/s
20%
21:00
17°
1015.0 hPa
81%
12.8°
3
Windvlaag: -0.7 m/s
79%
22:00
16°
1015.1 hPa
73%
13.4°
2
Windvlaag: -0.9 m/s
77%
23:00
15°
1015.3 hPa
64%
13.8°
2
Windvlaag: 0.3 m/s
17%
 04:43     22:15    Daglengte: 17:32 Morgen
00:00
15°
1015.0 hPa
15%
13.7°
2
Windvlaag: 1 m/s
18%
01:00
14°
1014.8 hPa
14%
13.7°
2
Windvlaag: 1.2 m/s
21%
02:00
14°
1014.7 hPa
14%
13.5°
2
Windvlaag: 2.4 m/s
13%
03:00
13°
1014.6 hPa
14%
13.0°
3
Windvlaag: 2.5 m/s
8%
04:00
13°
1014.5 hPa
14%
12.9°
3
Windvlaag: 3.2 m/s
15%
05:00
13°
1014.2 hPa
14%
12.6°
3
Windvlaag: 3.3 m/s
12%
06:00
13°
1014.1 hPa
15%
12.0°
3
Windvlaag: 4.3 m/s
21%
07:00
14°
1014.1 hPa
22%
12.4°
3
Windvlaag: 5.1 m/s
23%
08:00
15°
1014.0 hPa
37%
12.8°
4
Windvlaag: 6.2 m/s
49%
09:00
16°
1013.9 hPa
82%
11.8°
5
Windvlaag: 6.5 m/s
65%
10:00
16°
1013.9 hPa
82%
12.6°
5
Windvlaag: 5.6 m/s
85%
11:00
16°
1013.7 hPa
82%
13.4°
5
Windvlaag: 5.7 m/s
73%
12:00
17°
1013.4 hPa 0.6 mm
82%
13.2°
5
Windvlaag: 6 m/s
71%
13:00
17°
1013.4 hPa 0.8 mm
82%
11.3°
6
Windvlaag: 6.5 m/s
81%
14:00
17°
1013.3 hPa 0.9 mm
82%
9.9°
6
Windvlaag: 5.7 m/s
76%
15:00
17°
1013.5 hPa
82%
9.7°
7
Windvlaag: 5 m/s
55%
16:00
17°
1013.5 hPa
82%
9.3°
7
Windvlaag: 5 m/s
82%
17:00
17°
1013.3 hPa
82%
11.6°
7
Windvlaag: 6 m/s
64%
18:00
16°
1013.0 hPa
82%
12.4°
6
Windvlaag: 6.1 m/s
66%
19:00
15°
1013.0 hPa
82%
12.1°
6
Windvlaag: 6 m/s
54%
20:00
15°
1013.1 hPa
82%
11.7°
5
Windvlaag: 4.9 m/s
13%
21:00
15°
1012.9 hPa
67%
11.7°
5
Windvlaag: 5.2 m/s
16%
22:00
14°
1013.0 hPa
16%
11.9°
6
Windvlaag: 5.7 m/s
15%
23:00
14°
1013.3 hPa
19%
11.1°
5
Windvlaag: 5.9 m/s
14%
 04:44     22:14    Daglengte: 17:30 Dinsdag 05 Jul
00:00
13°
1013.6 hPa
14%
10.3°
5
Windvlaag: 6.5 m/s
16%
01:00
13°
1013.6 hPa
14%
9.8°
5
Windvlaag: 7 m/s
18%
02:00
13°
1013.7 hPa
16%
9.8°
4
Windvlaag: 7 m/s
59%
03:00
13°
1013.5 hPa
15%
9.9°
4
Windvlaag: 7 m/s
65%
04:00
13°
1013.3 hPa
20%
10.2°
4
Windvlaag: 5.7 m/s
20%
05:00
13°
1013.2 hPa
32%
10.8°
5
Windvlaag: 5.4 m/s
78%
06:00
13°
1013.5 hPa 4.0 mm
42%
10.4°
5
Windvlaag: 3.8 m/s
56%
07:00
14°
1013.7 hPa
87%
10.6°
6
Windvlaag: 4.1 m/s
65%
08:00
14°
1014.0 hPa 2.5 mm
100%
10.1°
6
Windvlaag: 3.5 m/s
63%
09:00
15°
1014.2 hPa 4.1 mm
100%
8.8°
6
Windvlaag: 3.7 m/s
73%
10:00
14°
1014.6 hPa 4.5 mm
100%
12.8°
6
Windvlaag: 3 m/s
71%
11:00
15°
1014.8 hPa 2.9 mm
100%
11.7°
6
Windvlaag: 3.2 m/s
53%
12:00
16°
1015.0 hPa 4.7 mm
100%
10.4°
7
Windvlaag: 2.8 m/s
64%
13:00
16°
1015.3 hPa 4.7 mm
79%
9.3°
8
Windvlaag: 2.5 m/s
53%
14:00
17°
1015.5 hPa 4.7 mm
22%
8.3°
8
Windvlaag: 1.9 m/s
53%
15:00
17°
1015.7 hPa
24%
7.6°
8
Windvlaag: 1.4 m/s
72%
16:00
16°
1015.8 hPa
24%
7.9°
8
Windvlaag: 0.9 m/s
70%
17:00
16°
1015.9 hPa
22%
8.2°
8
Windvlaag: 0.5 m/s
67%
18:00
15°
1015.9 hPa
22%
8.0°
8
Windvlaag: 0.9 m/s
52%
19:00
15°
1015.8 hPa 4.7 mm
21%
9.0°
8
Windvlaag: 0.6 m/s
51%
20:00
14°
1015.9 hPa 4.7 mm
22%
8.6°
7
Windvlaag: 0.8 m/s
52%
21:00
14°
1016.0 hPa
21%
9.1°
6
Windvlaag: 1.4 m/s
60%
22:00
13°
1016.1 hPa
21%
10.4°
6
Windvlaag: 1.1 m/s
47%
23:00
13°
1016.1 hPa
21%
10.3°
5
Windvlaag: 0.2 m/s
47%
 04:46     22:13    Daglengte: 17:27 Woensdag 06 Jul
00:00
12°
1016.4 hPa
21%
9.3°
4
Windvlaag: 9.9 m/s
20%
01:00
12°
1016.4 hPa
22%
9.2°
5
Windvlaag: 10.1 m/s
19%
02:00
12°
1016.4 hPa
21%
8.5°
5
Windvlaag: 9.9 m/s
63%
03:00
12°
1016.3 hPa
21%
8.8°
4
Windvlaag: 10.4 m/s
63%
04:00
12°
1016.4 hPa
21%
9.2°
4
Windvlaag: 10.7 m/s
78%
05:00
11°
1016.2 hPa
21%
9.4°
3
Windvlaag: 9.8 m/s
71%
06:00
12°
1016.0 hPa
21%
9.9°
4
Windvlaag: 7.4 m/s
78%
07:00
13°
1016.0 hPa
22%
8.6°
4
Windvlaag: 13 m/s
69%
Temp/Neerslag /Baro Onweer/Dauwpunt
    Temp Baro Neerslag Dauwpunt Wind Bewolking  
 04:42     22:16    Daglengte: 17:34 Vandaag
08:00
17°
1015.9 hPa   12.6°
4
14%
11:00
20°
1015.8 hPa   12.1°
4
18%
14:00
21°
1015.5 hPa 0.7 mm 10.9°
4
19%
17:00
20°
1015.0 hPa   13.4°
4
9%
20:00
18°
1014.9 hPa   12.7°
4
20%
23:00
15°
1015.3 hPa   13.8°
2
17%
 04:43     22:15    Daglengte: 17:32 Morgen
02:00
14°
1014.7 hPa   13.5°
2
13%
05:00
13°
1014.2 hPa   12.6°
3
12%
08:00
15°
1014.0 hPa   12.8°
4
49%
11:00
16°
1013.7 hPa   13.4°
5
73%
14:00
17°
1013.3 hPa 2.3 mm 9.9°
6
76%
17:00
17°
1013.3 hPa   11.6°
7
64%
20:00
15°
1013.1 hPa   11.7°
5
13%
23:00
14°
1013.3 hPa   11.1°
5
14%
 04:44     22:14    Daglengte: 17:30 Dinsdag 05 Jul
02:00
13°
1013.7 hPa   9.8°
4
59%
05:00
13°
1013.2 hPa   10.8°
5
78%
08:00
14°
1014.0 hPa 6.4 mm 10.1°
6
63%
11:00
15°
1014.8 hPa 11.5 mm 11.7°
6
53%
14:00
17°
1015.5 hPa 14.0 mm 8.3°
8
53%
17:00
16°
1015.9 hPa   8.2°
8
67%
20:00
14°
1015.9 hPa 9.4 mm 8.6°
7
52%
23:00
13°
1016.1 hPa   10.3°
5
47%
 04:46     22:13    Daglengte: 17:27 Woensdag 06 Jul
02:00
12°
1016.4 hPa   8.5°
5
63%
05:00
11°
1016.2 hPa   9.4°
3
71%
08:00
14°
1016.2 hPa   8.7°
5
75%
11:00
16°
1017.8 hPa 10.1 mm 7.8°
11
0%
14:00
17°
1018.8 hPa 10.1 mm 7.8°
11
0%
17:00
16°
1018.8 hPa 10.1 mm 9.1°
9
0%
20:00
15°
1018.1 hPa 10.1 mm 10.2°
8
1%
23:00
14°
1017.0 hPa 10.2 mm 10.8°
7
1%
 04:47     22:13    Daglengte: 17:26 Donderdag 07 Jul
02:00
13°
1016.7 hPa 10.3 mm 9.5°
7
1%
05:00
14°
1016.1 hPa 10.3 mm 9.9°
8
1%
08:00
15°
1016.2 hPa 10.4 mm 12.3°
7
1%
11:00
17°
1016.7 hPa 10.7 mm 12.6°
9
1%
14:00
18°
1017.3 hPa 10.9 mm 12.9°
10
1%
17:00
18°
1017.9 hPa 11.0 mm 12.9°
10
1%
20:00
16°
1017.9 hPa 11.0 mm 11.7°
10
1%
23:00
14°
1018.1 hPa 11.0 mm 12.0°
10
0%
 04:48     22:12    Daglengte: 17:24 Vrijdag 08 Jul
02:00
15°
1017.5 hPa 11.0 mm 11.9°
8
0%
05:00
16°
1016.3 hPa 11.0 mm 12.6°
8
1%
08:00
17°
1015.3 hPa 11.1 mm 13.6°
9
1%
11:00
18°
1014.6 hPa 11.2 mm 11.2°
8
1%
14:00
16°
1013.1 hPa 12.0 mm 13.9°
8
1%
17:00
18°
1012.2 hPa 12.4 mm 12.9°
10
1%
20:00
15°
1012.2 hPa 12.5 mm 10.7°
11
1%
23:00
14°
1011.9 hPa 12.5 mm 10.6°
10
0%
 04:49     22:11    Daglengte: 17:22 Zaterdag 09 Jul
02:00
15°
1012.3 hPa 12.5 mm 10.3°
8
1%
05:00
15°
1013.5 hPa 12.7 mm 10.4°
5
1%
08:00
15°
1015.6 hPa 13.5 mm 12.4°
7
1%
11:00
18°
1017.3 hPa 14.0 mm 10.6°
8
0%
14:00
19°
1018.9 hPa 14.0 mm 10.3°
7
0%
17:00
19°
1020.2 hPa 14.0 mm 8.5°
6
0%
20:00
17°
1021.0 hPa 14.0 mm 10.9°
5
0%
23:00
13°
1021.7 hPa 14.0 mm 9.9°
5
0%
 04:51     22:10    Daglengte: 17:19 Zondag 10 Jul
02:00
12°
1021.6 hPa 14.0 mm 8.4°
4
0%
05:00
12°
1020.9 hPa   8.7°
5
1%
08:00
15°
1020.3 hPa 27.9 mm 10.2°
7
1%
14:00
19°
1020.0 hPa 28.0 mm 12.8°
7
1%
20:00
16°
1018.5 hPa 28.7 mm 12.6°
6
1%
 04:52     22:08    Daglengte: 17:16 Maandag 11 Jul
02:00
14°
1017.3 hPa 29.8 mm 11.7°
6
1%
08:00
15°
1017.2 hPa 30.7 mm 12.3°
6
1%
14:00
18°
1018.2 hPa 30.9 mm 11.6°
9
1%
20:00
15°
1017.9 hPa 30.9 mm 11.8°
8
1%
 04:53     22:07    Daglengte: 17:14 Dinsdag 12 Jul
02:00
15°
1015.5 hPa 31.2 mm 12.8°
7
1%
08:00
16°
1016.4 hPa 31.3 mm 11.4°
8
1%
14:00
18°
1019.4 hPa 31.3 mm 11.3°
9
1%
20:00
16°
1017.9 hPa 31.5 mm 14.2°
9
1%
 04:55     22:06    Daglengte: 17:11 Woensdag 13 Jul
02:00
14°
1016.5 hPa 0.1 mm 11.5°
4
50%
08:00
16°
1016.0 hPa 0.1 mm 12.1°
4
56%
14:00
20°
1016.0 hPa 0.3 mm 12.4°
5
56%
20:00
17°
1015.4 hPa 0.5 mm 12.6°
4
55%
 04:56     22:05    Daglengte: 17:09 Donderdag 14 Jul
02:00
14°
1015.0 hPa 0.2 mm 11.3°
3
47%
08:00
16°
1014.7 hPa 0.1 mm 12.2°
3
45%
14:00
20°
1014.9 hPa 0.5 mm 12.2°
5
49%
20:00
18°
1014.6 hPa 0.6 mm 12.4°
4
52%
 04:58     22:03    Daglengte: 17:05 Vrijdag 15 Jul
02:00
13°
1014.4 hPa 0.1 mm 10.8°
3
44%
08:00
16°
1014.3 hPa 0.1 mm 12.1°
2
38%
14:00
21°
1014.7 hPa 0.6 mm 12.1°
3
47%
20:00
18°
1014.1 hPa 0.3 mm 12.4°
3
46%
 04:59     22:02    Daglengte: 17:03 Zaterdag 16 Jul
02:00
13°
1013.8 hPa 0.1 mm 11.3°
2
40%
08:00
16°
1013.2 hPa 0.1 mm 12.7°
1
37%
14:00
21°
1012.7 hPa 0.2 mm 13.2°
2
49%
20:00
19°
1012.0 hPa 0.6 mm 12.9°
3
46%
 05:01     22:01    Daglengte: 17:00 Zondag 17 Jul
02:00
14°
1012.0 hPa 0.3 mm 11.6°
1
51%
08:00
16°
1011.6 hPa 0.4 mm 12.7°
2
50%
14:00
21°
1011.7 hPa 0.3 mm 12.9°
3
58%
20:00
18°
1011.4 hPa 0.7 mm 12.3°
4
57%
 05:03     21:59    Daglengte: 16:56 Maandag 18 Jul
02:00
13°
1011.8 hPa 0.2 mm 10.7°
3
53%
  CAPE Lifted Index Hail Supercell Tornado SRH 3km CL BTM PRES CL TOP PRES Swiss DWD icon SMHI TS
 04:42     22:16    Daglengte: 17:34 Vandaag
08:00 269 J/kg -1.0 K 0 % 0 % 0 % 0 m²/s² 0 0 0.26 2
09:00 470 J/kg -2.1 K 0 % 0 % 0 % 0 m²/s² 0 0 -1.23 2
10:00 445 J/kg -2.2 K 0 % 0 % 0 % 0 m²/s² 0 0 -1.06 2
11:00 391 J/kg -1.7 K 0 % 0 % 0 % 0 m²/s² 0 0 0.25 2
12:00 406 J/kg -1.4 K 0 % 0 % 0 % 0 m²/s² 0 0 0.73 80
13:00 289 J/kg -0.6 K 0 % 0 % 0 % 0 m²/s² 0 0 1.68 2
14:00 219 J/kg -0.1 K 0 % 0 % 0 % 0 m²/s² 0 0 2.39 80
15:00 182 J/kg 0.0 K 0 % 0 % 0 % 0 m²/s² 0 0 2.97 2
16:00 113 J/kg 0.7 K 0 % 0 % 0 % 0 m²/s² 0 0 4.09 3
17:00 84 J/kg 1.2 K 0 % 0 % 0 % 0 m²/s² 0 0 4.5 2
18:00 95 J/kg 0.7 K 0 % 0 % 0 % 0 m²/s² 0 0 4 2
19:00 145 J/kg 0.0 K 0 % 0 % 0 % 0 m²/s² 0 0 3.48 2
20:00 177 J/kg -0.2 K 0 % 0 % 0 % 0 m²/s² 0 0 3.28 2
21:00 178 J/kg 0.0 K 0 % 0 % 0 % 0 m²/s² 0 0 3.36 80
22:00 148 J/kg 0.1 K 0 % 0 % 0 % 0 m²/s² 0 0 3.64 3
23:00 117 J/kg 0.2 K 0 % 0 % 0 % 0 m²/s² 0 0 3.95 2
 04:43     22:15    Daglengte: 17:32 Morgen
00:00 126 J/kg 0.2 K 0 % 0 % 0 % 0 m²/s² 0 0 3.74 2
01:00 135 J/kg 0.1 K 0 % 0 % 0 % 0 m²/s² 0 0 3.37 0
02:00 86 J/kg 0.6 K 0 % 0 % 0 % 0 m²/s² 0 0 3.63 1
03:00 82 J/kg 1.3 K 0 % 0 % 0 % 0 m²/s² 0 0 4.15 2
04:00 102 J/kg 1.3 K 0 % 0 % 0 % 0 m²/s² 0 0 4.15 2
05:00 82 J/kg 1.7 K 0 % 0 % 0 % 0 m²/s² 0 0 4.04 2
06:00 73 J/kg 1.8 K 0 % 0 % 0 % 0 m²/s² 0 0 3.81 2
07:00 122 J/kg 1.6 K 0 % 0 % 0 % 0 m²/s² 0 0 2.89 2
08:00 151 J/kg 1.9 K 0 % 0 % 0 % 0 m²/s² 0 0 3.7 3
09:00 165 J/kg 1.7 K 0 % 0 % 0 % 0 m²/s² 0 0 3.05 80
10:00 164 J/kg 1.6 K 0 % 0 % 0 % 0 m²/s² 0 0 3.01 80
11:00 249 J/kg 0.7 K 0 % 0 % 0 % 0 m²/s² 0 0 2.44 3
12:00 361 J/kg 0.1 K 0 % 0 % 0 % 0 m²/s² 0 0 1.39 3
13:00 517 J/kg -1.0 K 0 % 0 % 0 % 0 m²/s² 0 0 0.23 80
14:00 311 J/kg 0.8 K 0 % 0 % 0 % 0 m²/s² 0 0 2.24 80
15:00 327 J/kg 1.0 K 0 % 0 % 0 % 0 m²/s² 0 0 2.56 80
16:00 293 J/kg 1.7 K 0 % 0 % 0 % 0 m²/s² 0 0 2.6 80
17:00 252 J/kg 1.8 K 0 % 0 % 0 % 0 m²/s² 0 0 2.61 80
18:00 165 J/kg 2.4 K 0 % 0 % 0 % 0 m²/s² 0 0 2.76 80
19:00 50 J/kg 3.4 K 0 % 0 % 0 % 0 m²/s² 0 0 3.85 80
20:00 218 J/kg 3.0 K 0 % 0 % 0 % 0 m²/s² 0 0 3.93 80
21:00 116 J/kg 4.7 K 0 % 0 % 0 % 0 m²/s² 0 0 5.6 2
22:00 150 J/kg 4.8 K 0 % 0 % 0 % 0 m²/s² 0 0 5.94 2
23:00 136 J/kg 5.6 K 0 % 0 % 0 % 0 m²/s² 0 0 6.53 2
 04:44     22:14    Daglengte: 17:30 Dinsdag 05 Jul
00:00 115 J/kg 6.8 K 0 % 0 % 0 % 0 m²/s² 0 0 7.7 2
01:00 88 J/kg 7.1 K 0 % 0 % 0 % 0 m²/s² 0 0 7.67 2
02:00 163 J/kg 6.5 K 0 % 0 % 0 % 0 m²/s² 0 0 7.04 3
03:00 211 J/kg 5.8 K 0 % 0 % 0 % 0 m²/s² 0 0 6.52 3
04:00 184 J/kg 5.5 K 0 % 0 % 0 % 0 m²/s² 0 0 6.49 2
05:00 101 J/kg 5.9 K 0 % 0 % 0 % 0 m²/s² 0 0 7.04 3
06:00 106 J/kg 5.4 K 0 % 0 % 0 % 0 m²/s² 0 0 7.59 3
07:00 144 J/kg 4.8 K 0 % 0 % 0 % 0 m²/s² 0 0 8.04 3
08:00 129 J/kg 5.4 K 0 % 0 % 0 % 0 m²/s² 0 0 8.64 3
09:00 100 J/kg 6.3 K 0 % 0 % 0 % 0 m²/s² 0 0 9.78 80
10:00 58 J/kg 6.1 K 0 % 0 % 0 % 0 m²/s² 0 0 8.59 3
11:00 233 J/kg 4.6 K 0 % 0 % 0 % 0 m²/s² 0 0 7.81 2
12:00 236 J/kg 4.5 K 0 % 0 % 0 % 0 m²/s² 0 0 7.38 2
13:00 178 J/kg 5.1 K 0 % 0 % 0 % 0 m²/s² 0 0 8.22 2
14:00 105 J/kg 5.2 K 0 % 0 % 0 % 0 m²/s² 0 0 8.26 3
15:00 67 J/kg 5.4 K 0 % 0 % 0 % 0 m²/s² 0 0 7.23 3
16:00 80 J/kg 5.2 K 0 % 0 % 0 % 0 m²/s² 0 0 6.49 2
17:00 99 J/kg 5.0 K 0 % 0 % 0 % 0 m²/s² 0 0 5.96 2
18:00 78 J/kg 5.7 K 0 % 0 % 0 % 0 m²/s² 0 0 7.95 3
19:00 95 J/kg 5.1 K 0 % 0 % 0 % 0 m²/s² 0 0 7.71 2
20:00 57 J/kg 5.8 K 0 % 0 % 0 % 0 m²/s² 0 0 8.8 2
21:00 60 J/kg 5.9 K 0 % 0 % 0 % 0 m²/s² 0 0 8.45 2
22:00 71 J/kg 5.9 K 0 % 0 % 0 % 0 m²/s² 0 0 7.37 2
23:00 54 J/kg 6.3 K 0 % 0 % 0 % 0 m²/s² 0 0 9.39 2
 04:46     22:13    Daglengte: 17:27 Woensdag 06 Jul
00:00 76 J/kg 5.7 K 0 % 0 % 0 % 0 m²/s² 0 0 10.62 1
01:00 68 J/kg 6.1 K 0 % 0 % 0 % 0 m²/s² 0 0 10.87 2
02:00 47 J/kg 6.8 K 0 % 0 % 0 % 0 m²/s² 0 0 11.84 3
03:00 55 J/kg 7.3 K 0 % 0 % 0 % 0 m²/s² 0 0 12.61 3
04:00 48 J/kg 7.9 K 0 % 0 % 0 % 0 m²/s² 0 0 13.21 3
05:00 24 J/kg 8.1 K 0 % 0 % 0 % 0 m²/s² 0 0 13.41 3
06:00 68 J/kg 6.9 K 0 % 0 % 0 % 0 m²/s² 0 0 11.94 3
07:00 34 J/kg 8.0 K 0 % 0 % 0 % 0 m²/s² 0 0 12.77 3
Temp Baro Wind Neerslag
  EWN Forecast EWN WRFDA DWD ICON FMI HIRLAM MET Norway GFS
 04:42     22:16    Daglengte: 17:34 Vandaag
08:00 16.6° 1015.9 hPa 3.7 m/s 0.0 mm 18.3° 1014.9 hPa 2.8 m/s 0.0 mm 16.8° 1015.9 hPa 4.7 m/s -2.0 mm 16.8° 1015.9 hPa 4.3 m/s 0.0 mm 15.8° 1015.9 hPa 2.1 m/s
11:00 20.1° 1015.8 hPa 3.8 m/s 0.0 mm 21.6° 1014.5 hPa 3.0 m/s 0.1 mm 19.9° 1015.5 hPa 3.9 m/s 0.4 mm 20.9° 1015.9 hPa 4.7 m/s 0.0 mm 19.3° 1015.6 hPa 3.0 m/s
14:00 20.5° 1015.5 hPa 4.0 m/s 0.7 mm 22.0° 1014.5 hPa 3.2 m/s 2.4 mm 20.3° 1015.2 hPa 4.3 m/s 0.8 mm 21.7° 1015.8 hPa 4.8 m/s 0.0 mm 21.6° 1014.9 hPa 5.0 m/s
17:00 20.4° 1015.0 hPa 4.3 m/s 0.0 mm 21.7° 1013.9 hPa 4.4 m/s 3.8 mm 20.1° 1015.0 hPa 4.2 m/s 0.3 mm 20.4° 1015.6 hPa 4.3 m/s 0.0 mm 21.1° 1014.9 hPa 4.8 m/s
20:00 18.0° 1014.9 hPa 3.9 m/s 0.0 mm 18.5° 1014.0 hPa 4.3 m/s 4.0 mm 17.3° 1014.7 hPa 3.5 m/s 0.3 mm 18.1° 1015.8 hPa 3.8 m/s 0.0 mm 17.4° 1014.9 hPa 3.8 m/s
23:00 15.5° 1015.3 hPa 2.1 m/s 0.0 mm 14.1° 1014.4 hPa 2.4 m/s 4.0 mm 15.1° 1015.3 hPa 2.0 m/s 0.4 mm 15.7° 1016.2 hPa 1.6 m/s 0.0 mm 13.2° 1014.8 hPa 2.8 m/s
 04:43     22:15    Daglengte: 17:32 Morgen
02:00 14.0° 1014.7 hPa 2.4 m/s 0.0 mm 11.2° 1013.6 hPa 2.5 m/s 4.0 mm 13.1° 1014.4 hPa 2.5 m/s 0.0 mm 14.4° 1016.0 hPa 1.7 m/s 0.0 mm 11.7° 1014.4 hPa 2.7 m/s
05:00 12.8° 1014.2 hPa 2.8 m/s 0.0 mm 11.3° 1012.8 hPa 3.0 m/s 4.0 mm 12.9° 1014.2 hPa 2.9 m/s 0.0 mm 12.8° 1015.3 hPa 2.1 m/s 0.0 mm 11.1° 1013.9 hPa 3.3 m/s
08:00 15.1° 1014.0 hPa 4.2 m/s 0.0 mm 15.7° 1012.9 hPa 4.7 m/s 4.0 mm 15.1° 1014.1 hPa 4.9 m/s 0.0 mm 15.0° 1015.2 hPa 2.9 m/s 0.0 mm 15.3° 1013.3 hPa 4.8 m/s
11:00 16.5° 1013.7 hPa 5.2 m/s 0.0 mm 18.1° 1011.9 hPa 6.1 m/s 4.0 mm 15.9° 1014.0 hPa 5.3 m/s 0.9 mm 16.3° 1014.6 hPa 5.1 m/s 0.0 mm 16.7° 1012.7 hPa 6.6 m/s
14:00 17.1° 1013.3 hPa 6.0 m/s 2.3 mm 17.3° 1011.9 hPa 7.3 m/s 7.8 mm 16.9° 1013.4 hPa 5.8 m/s 1.0 mm 18.1° 1014.6 hPa 5.6 m/s 0.0 mm 17.3° 1012.9 hPa 8.2 m/s
17:00 16.5° 1013.3 hPa 6.8 m/s 0.0 mm 16.9° 1012.3 hPa 5.9 m/s 10.7 mm 15.0° 1013.3 hPa 5.7 m/s 2.2 mm 16.9° 1014.1 hPa 7.0 m/s 0.0 mm 16.3° 1013.2 hPa 7.9 m/s
20:00 15.0° 1013.1 hPa 5.4 m/s 0.0 mm 15.1° 1012.2 hPa 6.2 m/s 16.4 mm 14.2° 1013.3 hPa 5.3 m/s 0.9 mm 15.1° 1013.5 hPa 4.3 m/s 0.0 mm 14.2° 1012.9 hPa 6.7 m/s
23:00 13.5° 1013.3 hPa 5.2 m/s 0.0 mm 12.6° 1012.8 hPa 3.7 m/s 19.6 mm 12.8° 1013.8 hPa 3.4 m/s 0.1 mm 13.7° 1013.3 hPa 6.2 m/s 0.0 mm 11.2° 1013.5 hPa 4.1 m/s
 04:44     22:14    Daglengte: 17:30 Dinsdag 05 Jul
02:00 13.1° 1013.7 hPa 4.3 m/s 0.0 mm 12.8° 1012.2 hPa 3.6 m/s 23.9 mm 11.8° 1014.1 hPa 3.3 m/s 0.0 mm 13.7° 1014.0 hPa 4.3 m/s 0.0 mm 10.6° 1013.4 hPa 3.9 m/s
05:00 13.0° 1013.2 hPa 4.9 m/s 0.0 mm 13.2° 1012.4 hPa 5.0 m/s 34.4 mm 11.5° 1013.8 hPa 3.6 m/s 0.0 mm 12.3° 1013.0 hPa 6.4 m/s
08:00 14.3° 1014.0 hPa 5.7 m/s 6.4 mm 14.9° 1013.3 hPa 6.9 m/s 35.1 mm 13.8° 1014.5 hPa 5.4 m/s 0.3 mm 13.3° 1014.1 hPa 6.4 m/s
11:00 14.9° 1014.8 hPa 5.9 m/s 11.5 mm 15.3° 1014.0 hPa 4.3 m/s 38.5 mm 14.9° 1015.7 hPa 6.7 m/s 0.4 mm 16.3° 1014.7 hPa 8.6 m/s
14:00 16.6° 1015.5 hPa 7.5 m/s 14.0 mm 17.4° 1014.2 hPa 7.1 m/s 41.2 mm 16.8° 1015.9 hPa 8.2 m/s 0.1 mm 17.1° 1015.4 hPa 8.7 m/s
17:00 15.9° 1015.9 hPa 7.7 m/s 0.0 mm 16.6° 1014.4 hPa 7.7 m/s 41.2 mm 15.9° 1016.1 hPa 7.9 m/s 0.0 mm 16.5° 1015.8 hPa 8.1 m/s
20:00 14.2° 1015.9 hPa 7.4 m/s 9.4 mm 14.4° 1014.5 hPa 7.8 m/s 41.2 mm 14.3° 1016.0 hPa 6.3 m/s 0.0 mm 14.6° 1016.1 hPa 6.0 m/s
23:00 12.6° 1016.1 hPa 5.3 m/s 0.0 mm 11.5° 1015.0 hPa 4.6 m/s 41.2 mm 12.7° 1016.6 hPa 4.8 m/s 0.0 mm 11.3° 1016.4 hPa 4.2 m/s
 04:46     22:13    Daglengte: 17:27 Woensdag 06 Jul
02:00 12.0° 1016.4 hPa 4.7 m/s 0.0 mm 12.4° 1015.5 hPa 5.9 m/s 41.6 mm 11.9° 1016.6 hPa 4.4 m/s 0.0 mm 12.2° 1016.2 hPa 6.9 m/s
05:00 11.3° 1016.2 hPa 3.2 m/s 0.0 mm 10.2° 1015.6 hPa 3.7 m/s 41.9 mm 11.6° 1016.3 hPa 3.1 m/s 0.0 mm 12.4° 1016.3 hPa 8.2 m/s
08:00 14.2° 1016.2 hPa 5.2 m/s 0.0 mm 14.0° 1016.4 hPa 7.6 m/s 43.5 mm 14.2° 1016.1 hPa 4.6 m/s 0.0 mm 13.0° 1016.9 hPa 8.7 m/s
11:00 15.7° 1017.8 hPa 10.9 m/s 10.1 mm 15.7° 1017.8 hPa 10.9 m/s 10.1 mm
14:00 16.6° 1018.8 hPa 10.5 m/s 10.1 mm 16.6° 1018.8 hPa 10.5 m/s 10.1 mm
17:00 16.1° 1018.8 hPa 9.5 m/s 10.1 mm 16.1° 1018.8 hPa 9.5 m/s 10.1 mm
20:00 14.5° 1018.1 hPa 7.6 m/s 10.1 mm 14.5° 1018.1 hPa 7.6 m/s 10.1 mm
23:00 14.0° 1017.0 hPa 6.8 m/s 10.2 mm 14.0° 1017.0 hPa 6.8 m/s 10.2 mm
 04:47     22:13    Daglengte: 17:26 Donderdag 07 Jul
02:00 13.4° 1016.7 hPa 7.0 m/s 10.3 mm 13.4° 1016.7 hPa 7.0 m/s 10.3 mm
05:00 14.0° 1016.1 hPa 7.6 m/s 10.3 mm 14.0° 1016.1 hPa 7.6 m/s 10.3 mm
08:00 15.3° 1016.2 hPa 7.3 m/s 10.4 mm 15.3° 1016.2 hPa 7.3 m/s 10.4 mm
11:00 17.0° 1016.7 hPa 8.6 m/s 10.7 mm 17.0° 1016.7 hPa 8.6 m/s 10.7 mm
14:00 18.2° 1017.3 hPa 9.9 m/s 10.9 mm 18.2° 1017.3 hPa 9.9 m/s 10.9 mm
17:00 17.7° 1017.9 hPa 10.3 m/s 11.0 mm 17.7° 1017.9 hPa 10.3 m/s 11.0 mm
20:00 15.7° 1017.9 hPa 9.8 m/s 11.0 mm 15.7° 1017.9 hPa 9.8 m/s 11.0 mm
23:00 14.2° 1018.1 hPa 9.5 m/s 11.0 mm 14.2° 1018.1 hPa 9.5 m/s 11.0 mm
 04:48     22:12    Daglengte: 17:24 Vrijdag 08 Jul
02:00 14.8° 1017.5 hPa 7.8 m/s 11.0 mm 14.8° 1017.5 hPa 7.8 m/s 11.0 mm
05:00 15.6° 1016.3 hPa 8.4 m/s 11.0 mm 15.6° 1016.3 hPa 8.4 m/s 11.0 mm
08:00 16.7° 1015.3 hPa 8.6 m/s 11.1 mm 16.7° 1015.3 hPa 8.6 m/s 11.1 mm
11:00 17.8° 1014.6 hPa 7.6 m/s 11.2 mm 17.8° 1014.6 hPa 7.6 m/s 11.2 mm
14:00 16.2° 1013.1 hPa 7.7 m/s 12.0 mm 16.2° 1013.1 hPa 7.7 m/s 12.0 mm
17:00 17.7° 1012.2 hPa 9.7 m/s 12.4 mm 17.7° 1012.2 hPa 9.7 m/s 12.4 mm
20:00 15.2° 1012.2 hPa 10.6 m/s 12.5 mm 15.2° 1012.2 hPa 10.6 m/s 12.5 mm
23:00 14.0° 1011.9 hPa 10.2 m/s 12.5 mm 14.0° 1011.9 hPa 10.2 m/s 12.5 mm
 04:49     22:11    Daglengte: 17:22 Zaterdag 09 Jul
02:00 15.0° 1012.3 hPa 7.8 m/s 12.5 mm 15.0° 1012.3 hPa 7.8 m/s 12.5 mm
05:00 14.6° 1013.5 hPa 5.4 m/s 12.7 mm 14.6° 1013.5 hPa 5.4 m/s 12.7 mm
08:00 15.1° 1015.6 hPa 6.6 m/s 13.5 mm 15.1° 1015.6 hPa 6.6 m/s 13.5 mm
11:00 18.1° 1017.3 hPa 7.6 m/s 14.0 mm 18.1° 1017.3 hPa 7.6 m/s 14.0 mm
14:00 19.3° 1018.9 hPa 6.9 m/s 14.0 mm 19.3° 1018.9 hPa 6.9 m/s 14.0 mm
17:00 19.1° 1020.2 hPa 5.6 m/s 14.0 mm 19.1° 1020.2 hPa 5.6 m/s 14.0 mm
20:00 17.0° 1021.0 hPa 4.5 m/s 14.0 mm 17.0° 1021.0 hPa 4.5 m/s 14.0 mm
23:00 12.7° 1021.7 hPa 4.6 m/s 14.0 mm 12.7° 1021.7 hPa 4.6 m/s 14.0 mm
 04:51     22:10    Daglengte: 17:19 Zondag 10 Jul
02:00 11.8° 1021.6 hPa 4.1 m/s 14.0 mm 11.8° 1021.6 hPa 4.1 m/s 14.0 mm
05:00 12.4° 1020.9 hPa 4.5 m/s 14.0 mm 12.4° 1020.9 hPa 4.5 m/s 14.0 mm
08:00 15.1° 1020.3 hPa 6.5 m/s 14.0 mm 15.1° 1020.3 hPa 6.5 m/s 14.0 mm
14:00 18.7° 1020.0 hPa 7.5 m/s 14.0 mm 18.7° 1020.0 hPa 7.5 m/s 14.0 mm
20:00 16.4° 1018.5 hPa 6.0 m/s 14.5 mm 16.4° 1018.5 hPa 6.0 m/s 14.5 mm
 04:52     22:08    Daglengte: 17:16 Maandag 11 Jul
02:00 14.0° 1017.3 hPa 5.8 m/s 15.0 mm 14.0° 1017.3 hPa 5.8 m/s 15.0 mm
08:00 15.4° 1017.2 hPa 6.4 m/s 15.4 mm 15.4° 1017.2 hPa 6.4 m/s 15.4 mm
14:00 18.4° 1018.2 hPa 9.0 m/s 15.4 mm 18.4° 1018.2 hPa 9.0 m/s 15.4 mm
20:00 15.0° 1017.9 hPa 8.0 m/s 15.5 mm 15.0° 1017.9 hPa 8.0 m/s 15.5 mm
 04:53     22:07    Daglengte: 17:14 Dinsdag 12 Jul
02:00 15.3° 1015.5 hPa 7.2 m/s 15.6 mm 15.3° 1015.5 hPa 7.2 m/s 15.6 mm
08:00 16.0° 1016.4 hPa 7.7 m/s 15.7 mm 16.0° 1016.4 hPa 7.7 m/s 15.7 mm
14:00 17.9° 1019.4 hPa 8.7 m/s 15.7 mm 17.9° 1019.4 hPa 8.7 m/s 15.7 mm
20:00 16.1° 1017.9 hPa 9.2 m/s 15.8 mm 16.2° 1017.9 hPa 9.2 m/s 15.8 mm
 04:55     22:06    Daglengte: 17:11 Woensdag 13 Jul
02:00 13.7° 1016.5 hPa 4.1 m/s 0.1 mm
08:00 16.0° 1016.0 hPa 4.4 m/s 0.1 mm
14:00 19.8° 1016.0 hPa 5.0 m/s 0.3 mm
20:00 17.2° 1015.4 hPa 4.1 m/s 0.5 mm
 04:56     22:05    Daglengte: 17:09 Donderdag 14 Jul
02:00 13.6° 1015.0 hPa 3.3 m/s 0.2 mm
08:00 16.2° 1014.7 hPa 3.3 m/s 0.1 mm
14:00 20.1° 1014.9 hPa 4.6 m/s 0.5 mm
20:00 17.7° 1014.6 hPa 4.5 m/s 0.6 mm
 04:58     22:03    Daglengte: 17:05 Vrijdag 15 Jul
02:00 13.3° 1014.4 hPa 2.8 m/s 0.1 mm
08:00 16.1° 1014.3 hPa 2.3 m/s 0.1 mm
14:00 20.8° 1014.7 hPa 3.2 m/s 0.6 mm
20:00 18.1° 1014.1 hPa 2.8 m/s 0.3 mm
 04:59     22:02    Daglengte: 17:03 Zaterdag 16 Jul
02:00 13.4° 1013.8 hPa 1.8 m/s 0.1 mm
08:00 16.5° 1013.2 hPa 1.4 m/s 0.1 mm
14:00 21.4° 1012.7 hPa 2.4 m/s 0.2 mm
20:00 18.6° 1012.0 hPa 3.2 m/s 0.6 mm
 05:01     22:01    Daglengte: 17:00 Zondag 17 Jul
02:00 13.9° 1012.0 hPa 1.5 m/s 0.3 mm
08:00 16.3° 1011.6 hPa 1.6 m/s 0.4 mm
14:00 20.6° 1011.7 hPa 2.7 m/s 0.3 mm
20:00 17.6° 1011.4 hPa 3.7 m/s 0.7 mm
 05:03     21:59    Daglengte: 16:56 Maandag 18 Jul
02:00 13.4° 1011.8 hPa 2.6 m/s 0.2 mm
FMI Hirlam - 7.5 km EWN WRFDA - 12 km DWD ICON - 7 km GFS - 25 km Basiskaart






























































Updatetijd (Europe/Brussels) Resolutie Lengte Stap
FMI Hirlam 07:00, 13:00, 19:00, 01:00 7.5 km 49h 1h
EWN WRFDA 04:15, 10:15, 16:15, 22:15 12 km 73h 1h
DWD ICON 05:45, 11:45, 17:45, 23:45 7 km 75h 1h
GFS 02:15, 08:15, 14:15, 20:15 25 km 237h 3h
30+ mm
25-30 mm
20-25 mm
15-20 mm
10-15 mm
6-10 mm
4-6 mm
2-4 mm
1-2 mm
0.5-1 mm
0.2-0.5 mm
0.1-0.2 mm
30+ mm
25-30 mm
20-25 mm
15-20 mm
10-15 mm
6-10 mm
4-6 mm
2-4 mm
1-2 mm
0.5-1 mm
0.2-0.5 mm
0.1-0.2 mm
Sneeuwval
Natte sneeuw
Hagel
Vorst
30+ mm
25-30 mm
20-25 mm
15-20 mm
10-15 mm
6-10 mm
4-6 mm
2-4 mm
1-2 mm
0.5-1 mm
0.2-0.5 mm
0.1-0.2 mm
Sneeuwval
Natte sneeuw
Hagel
Vorst
Onweer
50 mm
40 mm
30 mm
26 mm
22 mm
18 mm
14 mm
10 mm
9 mm
8 mm
7 mm
6 mm
5 mm
4.5 mm
4 mm
3.5 mm
3 mm
2.5 mm
2 mm
1.5 mm
1 mm
0.8 mm
0.6 mm
0.4 mm
0.2 mm
0.05 mm
35°
30°
25°
20°
15°
10°
-5°